map of CIT home
CIT - Airport
Location
City:  Shymkent, Ongtüstik Qazaqstan, Kazakhstan
Near (Alt.):Shimkent
Name:Shymkent International Airport
ICAO:UAII
IATA:CIT

Details
Type:Airport (Aerodrome, Airfield)
Use:Public/Civil, International (customs port of entry)
Latitude:42°21'54"N (42.365000)
Longitude:69°28'32"E (69.475556)
Elevation:1385 ft (422 m)
Variation:5.86°E (WMM2015 magnetic declination)
0.05° annual change
Runways:1
Longest:10827 × 148 ft (3300 × 45 m), paved

Time
Time Zone:UTC+6
Local Time:

Weather
METAR:UAII 190530Z 24003G08MPS CAVOK 35/02 Q1006 R10/0///70 NOSIG RMK QFE720/0960
TAF:UAII 190500Z 1906/2006 24008G13MPS 8000 CAVOK TX37/1910Z TN19/2001Z
TEMPO 1906/1915 29010G15MPS
TEMPO 1915/2003 12005MPS

Related Locations
Nearby:
Farthest:IPC: 11380 mi / 18315 km
Easter Island (Isla de Pascua, Rapa Nui) [Mataveri Intl], VS, CL

Find:

   beyond  
but within

Other Information
Maps:
NOTAMs:
Links:
Sources:

  
  • flag of Kazakhstan
  

Sectional Chart

Flight Planning
at skyvector.com

Satellite Image

Google Maps Satellite view

 

Copyright © 2004-2018 Karl L. Swartz. All rights reserved.
The Great Circle Mapper name and logo are trademarks of the Great Circle Mapper.
All other trademarks mentioned herein belong to their respective owners.
Please see credits for attibutions and further copyright information.

  Follow gcmap on Facebook Follow gcmap on Twitter Follow gcmap on Google+ GCmap on LinkedIn

hCard Microformat

Geo Microformat